TOM7FG EGCC-LGRP

Flight info

Callsign TOM7FG
Flight time 3h 11m
Altitude 35000
Route SONEX UL975 DESIG L603 DOLAS DCT NAVPI DCT DOJOH DCT DODEN DCT NEGIX DCT DINKU M867 XERUM DCT BAVAX DCT RADIZ DCT DOL DCT MONID/N0451F370 DCT NAVSU DCT EMKES DCT XELMI DCT AKIKA DCT ENFAR DCT PEP DCT TALAS UN130 MES UN139 LURUS UL995 CODIC
Aircraft B38M/M-SDE1FGHILORVWXY/HB1

Departure

Time 2026-05-07 21:23
Airport Manchester Airport (EGCC)

Arrival

Time 2026-05-08 00:35
Airport Rhodes International Airport "Diagoras" (LGRP)
Time Latitude Longitude Altitude Speed Heading
2026-05-07 19:48 53.36978 -2.28656 257 ft 0 kts 135°
2026-05-07 21:06 53.36983 -2.28663 257 ft 4 kts 135°
2026-05-07 21:06 53.36997 -2.28688 257 ft 3 kts 135°
2026-05-07 21:06 53.37016 -2.28720 257 ft 4 kts 135°
2026-05-07 21:06 53.37031 -2.28745 257 ft 1 kts 135°
2026-05-07 21:07 53.37018 -2.28725 257 ft 4 kts 146°
2026-05-07 21:07 53.36997 -2.28727 257 ft 4 kts 207°
2026-05-07 21:07 53.36979 -2.28754 257 ft 4 kts 225°
2026-05-07 21:07 53.36959 -2.28786 257 ft 3 kts 225°
2026-05-07 21:08 53.36956 -2.28791 257 ft 2 kts 225°
2026-05-07 21:11 53.36955 -2.28793 257 ft 0 kts 225°
2026-05-07 21:11 53.36939 -2.28819 257 ft 3 kts 225°
2026-05-07 21:12 53.36923 -2.28847 257 ft 4 kts 225°
2026-05-07 21:12 53.36900 -2.28885 257 ft 5 kts 225°
2026-05-07 21:12 53.36872 -2.28931 257 ft 6 kts 225°
2026-05-07 21:12 53.36838 -2.28987 257 ft 7 kts 225°
2026-05-07 21:13 53.36791 -2.29029 257 ft 8 kts 200°
2026-05-07 21:13 53.36735 -2.29020 257 ft 9 kts 142°
2026-05-07 21:13 53.36689 -2.28946 257 ft 10 kts 135°
2026-05-07 21:13 53.36630 -2.28885 257 ft 10 kts 148°
2026-05-07 21:14 53.36584 -2.28786 257 ft 11 kts 118°
2026-05-07 21:14 53.36533 -2.28680 257 ft 12 kts 134°
2026-05-07 21:14 53.36472 -2.28576 257 ft 13 kts 135°
2026-05-07 21:14 53.36415 -2.28458 257 ft 13 kts 116°
2026-05-07 21:15 53.36376 -2.28324 257 ft 13 kts 118°
2026-05-07 21:15 53.36316 -2.28231 257 ft 12 kts 142°
2026-05-07 21:15 53.36259 -2.28140 257 ft 11 kts 135°
2026-05-07 21:15 53.36204 -2.28049 257 ft 11 kts 135°
2026-05-07 21:16 53.36147 -2.27962 257 ft 11 kts 142°
2026-05-07 21:16 53.36086 -2.27882 257 ft 11 kts 142°
2026-05-07 21:16 53.36026 -2.27804 257 ft 11 kts 142°
2026-05-07 21:16 53.35961 -2.27736 257 ft 11 kts 161°
2026-05-07 21:17 53.35886 -2.27728 257 ft 11 kts 181°
2026-05-07 21:17 53.35805 -2.27710 254 ft 13 kts 144°
2026-05-07 21:17 53.35733 -2.27644 251 ft 12 kts 156°
2026-05-07 21:17 53.35657 -2.27574 248 ft 12 kts 143°
2026-05-07 21:18 53.35615 -2.27481 247 ft 5 kts 86°
2026-05-07 21:18 53.35627 -2.27441 248 ft 3 kts 54°
2026-05-07 21:18 53.35633 -2.27428 249 ft 1 kts 52°
2026-05-07 21:18 53.35648 -2.27396 251 ft 6 kts 51°
2026-05-07 21:19 53.35677 -2.27337 257 ft 8 kts 51°
2026-05-07 21:19 53.35731 -2.27226 257 ft 15 kts 51°
2026-05-07 21:19 53.35793 -2.27096 258 ft 12 kts 51°
2026-05-07 21:19 53.35834 -2.26985 258 ft 11 kts 58°
2026-05-07 21:20 53.35877 -2.26886 258 ft 11 kts 52°
2026-05-07 21:20 53.35921 -2.26771 258 ft 12 kts 64°
2026-05-07 21:20 53.35970 -2.26669 258 ft 11 kts 44°
2026-05-07 21:20 53.36023 -2.26562 258 ft 13 kts 51°
2026-05-07 21:21 53.36081 -2.26443 258 ft 14 kts 51°
2026-05-07 21:21 53.36139 -2.26308 258 ft 15 kts 76°
2026-05-07 21:21 53.36096 -2.26195 258 ft 2 kts 140°
2026-05-07 21:22 53.36082 -2.26175 259 ft 6 kts 140°
2026-05-07 21:22 53.36025 -2.26155 261 ft 12 kts 219°
2026-05-07 21:22 53.35953 -2.26297 265 ft 21 kts 231°
2026-05-07 21:23 53.35758 -2.26702 272 ft 79 kts 231°
2026-05-07 21:23 53.35254 -2.27746 240 ft 148 kts 231°
2026-05-07 21:23 53.34519 -2.29286 437 ft 183 kts 231°
2026-05-07 21:23 53.33729 -2.30932 1048 ft 176 kts 227°
2026-05-07 21:24 53.32973 -2.32484 1990 ft 173 kts 228°
2026-05-07 21:24 53.32378 -2.34347 2547 ft 194 kts 250°
2026-05-07 21:24 53.32187 -2.36708 3004 ft 221 kts 275°
2026-05-07 21:24 53.32825 -2.39182 3501 ft 247 kts 309°
2026-05-07 21:25 53.34281 -2.40681 4381 ft 254 kts 339°
2026-05-07 21:25 53.35954 -2.41565 4404 ft 254 kts 340°
2026-05-07 21:25 53.37681 -2.42488 4523 ft 266 kts 340°
2026-05-07 21:25 53.39464 -2.43454 4646 ft 272 kts 340°
2026-05-07 21:26 53.41288 -2.44438 5033 ft 276 kts 340°
2026-05-07 21:26 53.43109 -2.45375 6064 ft 275 kts 346°
2026-05-07 21:26 53.45030 -2.45257 6909 ft 283 kts 19°
2026-05-07 21:26 53.46660 -2.43392 7664 ft 291 kts 53°
2026-05-07 21:27 53.47397 -2.40291 8483 ft 286 kts 86°
2026-05-07 21:27 53.47640 -2.36940 9209 ft 294 kts 83°
2026-05-07 21:27 53.48001 -2.33583 10049 ft 296 kts 82°
2026-05-07 21:27 53.48382 -2.30124 10566 ft 310 kts 82°
2026-05-07 21:28 53.48794 -2.26458 10861 ft 330 kts 81°
2026-05-07 21:28 53.49228 -2.22576 11223 ft 347 kts 82°
2026-05-07 21:28 53.49664 -2.18517 11724 ft 357 kts 82°
2026-05-07 21:28 53.50099 -2.14395 12509 ft 359 kts 82°
2026-05-07 21:29 53.50537 -2.10238 13162 ft 364 kts 82°
2026-05-07 21:29 53.50979 -2.06036 13849 ft 368 kts 82°
2026-05-07 21:29 53.51424 -2.01787 14501 ft 369 kts 82°
2026-05-07 21:29 53.51870 -1.97513 15093 ft 373 kts 82°
2026-05-07 21:30 53.52317 -1.93212 15660 ft 376 kts 82°
2026-05-07 21:30 53.52413 -1.88844 16209 ft 375 kts 101°
2026-05-07 21:30 53.51803 -1.84575 16749 ft 377 kts 108°
2026-05-07 21:30 53.51101 -1.80308 17281 ft 381 kts 108°
2026-05-07 21:31 53.50380 -1.76063 17816 ft 384 kts 109°
2026-05-07 21:31 53.49629 -1.71734 18335 ft 388 kts 109°
2026-05-07 21:31 53.48862 -1.67371 18793 ft 391 kts 109°
2026-05-07 21:31 53.48086 -1.62987 19255 ft 394 kts 109°
2026-05-07 21:32 53.47301 -1.58572 19708 ft 396 kts 109°
2026-05-07 21:32 53.46512 -1.54147 20142 ft 399 kts 109°
2026-05-07 21:32 53.45711 -1.49670 20628 ft 401 kts 109°
2026-05-07 21:32 53.44905 -1.45170 21078 ft 404 kts 109°
2026-05-07 21:33 53.44089 -1.40635 21503 ft 407 kts 109°
2026-05-07 21:33 53.43266 -1.36066 21926 ft 410 kts 109°
2026-05-07 21:33 53.42435 -1.31466 22349 ft 414 kts 109°
2026-05-07 21:33 53.41598 -1.26848 22765 ft 417 kts 109°
2026-05-07 21:34 53.40749 -1.22169 23168 ft 420 kts 109°
2026-05-07 21:34 53.39905 -1.17533 23567 ft 422 kts 109°
2026-05-07 21:34 53.39045 -1.12823 23912 ft 425 kts 109°
2026-05-07 21:34 53.38178 -1.08081 24265 ft 427 kts 109°
2026-05-07 21:35 53.37305 -1.03322 24615 ft 429 kts 109°
2026-05-07 21:35 53.36424 -0.98531 24976 ft 430 kts 109°
2026-05-07 21:35 53.35541 -0.93742 25337 ft 432 kts 109°
2026-05-07 21:35 53.34650 -0.88924 25667 ft 434 kts 109°
2026-05-07 21:36 53.33752 -0.84077 25999 ft 436 kts 109°
2026-05-07 21:36 53.32850 -0.79227 26327 ft 438 kts 109°
2026-05-07 21:36 53.31938 -0.74330 26646 ft 440 kts 109°
2026-05-07 21:36 53.31040 -0.69525 26952 ft 442 kts 109°
2026-05-07 21:37 53.30121 -0.64615 27255 ft 444 kts 109°
2026-05-07 21:37 53.29192 -0.59671 27555 ft 446 kts 109°
2026-05-07 21:37 53.28260 -0.54721 27858 ft 447 kts 109°
2026-05-07 21:37 53.27321 -0.49743 28153 ft 449 kts 109°
2026-05-07 21:38 53.26376 -0.44755 28444 ft 451 kts 109°
2026-05-07 21:38 53.25428 -0.39754 28726 ft 453 kts 109°
2026-05-07 21:38 53.24471 -0.34725 28944 ft 456 kts 109°
2026-05-07 21:38 53.23508 -0.29681 29113 ft 460 kts 109°
2026-05-07 21:39 53.22535 -0.24593 29427 ft 461 kts 109°
2026-05-07 21:39 53.21556 -0.19489 29663 ft 463 kts 109°
2026-05-07 21:39 53.20582 -0.14426 29943 ft 464 kts 109°
2026-05-07 21:39 53.19591 -0.09287 30173 ft 466 kts 109°
2026-05-07 21:40 53.18592 -0.04119 30395 ft 468 kts 109°
2026-05-07 21:40 53.17589 0.01053 30612 ft 469 kts 109°
2026-05-07 21:40 53.16588 0.06202 30895 ft 469 kts 109°
2026-05-07 21:40 53.15582 0.11362 31164 ft 469 kts 110°
2026-05-07 21:41 53.14573 0.16524 31448 ft 468 kts 110°
2026-05-07 21:41 53.13564 0.21676 31725 ft 468 kts 110°
2026-05-07 21:41 53.12549 0.26835 31995 ft 467 kts 110°
2026-05-07 21:41 53.11539 0.31964 32263 ft 467 kts 110°
2026-05-07 21:42 53.10525 0.37099 32526 ft 467 kts 110°
2026-05-07 21:42 53.09506 0.42242 32790 ft 466 kts 110°
2026-05-07 21:42 53.08496 0.47327 33043 ft 466 kts 110°
2026-05-07 21:42 53.07489 0.52387 33281 ft 466 kts 110°
2026-05-07 21:43 53.06470 0.57492 33620 ft 463 kts 110°
2026-05-07 21:43 53.05453 0.62573 33881 ft 463 kts 110°
2026-05-07 21:43 53.04434 0.67649 34106 ft 462 kts 110°
2026-05-07 21:43 53.03414 0.72720 34294 ft 462 kts 110°
2026-05-07 21:44 53.02394 0.77784 34466 ft 462 kts 110°
2026-05-07 21:44 53.01368 0.82866 34640 ft 462 kts 110°
2026-05-07 21:44 53.00694 0.86197 34754 ft 462 kts 110°
2026-05-07 21:44 52.99334 0.92902 34874 ft 465 kts 110°
2026-05-07 21:45 52.98298 0.97997 35010 ft 465 kts 111°
2026-05-07 21:45 52.97555 1.01349 35076 ft 465 kts 112°
2026-05-07 21:45 52.95271 1.11377 35088 ft 463 kts 112°
2026-05-07 21:46 52.93003 1.21401 35099 ft 464 kts 112°
2026-05-07 21:46 52.90736 1.31385 35098 ft 464 kts 112°
2026-05-07 21:47 52.88456 1.41375 35101 ft 464 kts 112°
2026-05-07 21:47 52.86163 1.51377 35087 ft 464 kts 112°
2026-05-07 21:48 52.83868 1.61339 35099 ft 462 kts 112°
2026-05-07 21:48 52.81591 1.71181 35104 ft 462 kts 112°
2026-05-07 21:49 52.79286 1.81092 35106 ft 462 kts 112°
2026-05-07 21:49 52.76973 1.90995 35109 ft 462 kts 113°
2026-05-07 21:50 52.74649 2.00898 35097 ft 462 kts 113°
2026-05-07 21:50 52.72318 2.10790 35113 ft 465 kts 113°
2026-05-07 21:51 52.69968 2.20710 35110 ft 464 kts 113°
2026-05-07 21:51 52.67610 2.30624 35110 ft 464 kts 113°
2026-05-07 21:52 52.65247 2.40511 35107 ft 464 kts 113°
2026-05-07 21:52 52.62881 2.50364 35103 ft 464 kts 113°
2026-05-07 21:53 52.60501 2.60232 35109 ft 463 kts 113°
2026-05-07 21:53 52.58113 2.70092 35112 ft 463 kts 114°
2026-05-07 21:54 52.55729 2.79903 35106 ft 463 kts 114°
2026-05-07 21:54 52.52925 2.89306 35117 ft 461 kts 120°
2026-05-07 21:55 52.49926 2.98629 35103 ft 462 kts 120°
2026-05-07 21:55 52.46952 3.07974 35093 ft 463 kts 120°
2026-05-07 21:56 52.43967 3.17339 35105 ft 465 kts 120°
2026-05-07 21:56 52.40962 3.26726 35097 ft 464 kts 120°
2026-05-07 21:57 52.37954 3.36090 35101 ft 464 kts 120°
2026-05-07 21:57 52.34942 3.45429 35097 ft 464 kts 120°
2026-05-07 21:58 52.31929 3.54736 35093 ft 463 kts 120°
2026-05-07 21:58 52.28928 3.63971 35101 ft 463 kts 120°
2026-05-07 21:59 52.25901 3.73252 35092 ft 463 kts 120°
2026-05-07 21:59 52.22864 3.82527 35094 ft 463 kts 120°
2026-05-07 22:00 52.19825 3.91776 35107 ft 465 kts 120°
2026-05-07 22:00 52.16766 4.01050 35096 ft 464 kts 120°
2026-05-07 22:01 52.13706 4.10291 35099 ft 464 kts 120°
2026-05-07 22:01 52.10641 4.19512 35086 ft 463 kts 120°
2026-05-07 22:02 52.07572 4.28713 35088 ft 464 kts 120°
2026-05-07 22:02 52.04491 4.37916 35077 ft 463 kts 121°
2026-05-07 22:03 52.01403 4.47103 35103 ft 463 kts 121°
2026-05-07 22:03 51.98300 4.56303 35102 ft 463 kts 121°
2026-05-07 22:04 51.95222 4.65396 35083 ft 463 kts 121°
2026-05-07 22:04 51.92102 4.74579 35079 ft 466 kts 121°
2026-05-07 22:05 51.88983 4.83722 35074 ft 466 kts 121°
2026-05-07 22:05 51.85845 4.92891 35081 ft 465 kts 121°
2026-05-07 22:06 51.82713 5.02008 35085 ft 465 kts 121°
2026-05-07 22:06 51.79565 5.11136 35091 ft 465 kts 121°
2026-05-07 22:07 51.76408 5.20261 35083 ft 465 kts 121°
2026-05-07 22:07 51.73257 5.29331 35082 ft 465 kts 121°
2026-05-07 22:08 51.70109 5.38365 35084 ft 464 kts 121°
2026-05-07 22:08 51.66938 5.47427 35079 ft 465 kts 121°
2026-05-07 22:09 51.63744 5.56525 35089 ft 467 kts 121°
2026-05-07 22:09 51.60549 5.65594 35102 ft 466 kts 122°
2026-05-07 22:10 51.57340 5.74668 35102 ft 466 kts 122°
2026-05-07 22:10 51.54143 5.83678 35092 ft 466 kts 121°
2026-05-07 22:11 51.50928 5.92704 35091 ft 465 kts 122°
2026-05-07 22:11 51.47709 6.01710 35096 ft 465 kts 122°
2026-05-07 22:12 51.44480 6.10711 35098 ft 465 kts 122°
2026-05-07 22:12 51.41248 6.19690 35093 ft 465 kts 122°
2026-05-07 22:13 51.38002 6.28676 35096 ft 466 kts 122°
2026-05-07 22:13 51.34756 6.37628 35092 ft 466 kts 122°
2026-05-07 22:14 51.31519 6.46528 35106 ft 466 kts 122°
2026-05-07 22:14 51.28253 6.55475 35086 ft 465 kts 122°
2026-05-07 22:15 51.24980 6.64409 35104 ft 466 kts 122°
2026-05-07 22:15 51.21717 6.73283 35101 ft 465 kts 122°
2026-05-07 22:16 51.18446 6.82150 35103 ft 465 kts 122°
2026-05-07 22:16 51.15162 6.91022 35104 ft 465 kts 122°
2026-05-07 22:17 51.11874 6.99873 35081 ft 465 kts 122°
2026-05-07 22:17 51.08593 7.08674 35100 ft 467 kts 122°
2026-05-07 22:18 51.03618 7.21963 35099 ft 465 kts 122°
2026-05-07 22:19 51.00303 7.30784 35102 ft 465 kts 122°
2026-05-07 22:19 50.96984 7.39592 35102 ft 465 kts 123°
2026-05-07 22:20 50.93656 7.48392 35099 ft 465 kts 123°
2026-05-07 22:20 50.90324 7.57177 35100 ft 465 kts 123°
2026-05-07 22:21 50.87004 7.65899 35099 ft 464 kts 123°
2026-05-07 22:21 50.83560 7.74503 35075 ft 462 kts 133°
2026-05-07 22:22 50.78964 7.81511 35062 ft 459 kts 138°
2026-05-07 22:22 50.74338 7.88441 35085 ft 458 kts 139°
2026-05-07 22:23 50.69692 7.95338 35076 ft 458 kts 139°
2026-05-07 22:23 50.65055 8.02199 35072 ft 458 kts 139°
2026-05-07 22:24 50.60419 8.09099 35110 ft 459 kts 134°
2026-05-07 22:24 50.56389 8.16905 35111 ft 459 kts 130°
2026-05-07 22:25 50.52419 8.24694 35111 ft 459 kts 130°
2026-05-07 22:25 50.48438 8.32496 35111 ft 459 kts 130°
2026-05-07 22:26 50.44434 8.40320 35104 ft 459 kts 130°
2026-05-07 22:26 50.40428 8.48125 35109 ft 459 kts 130°
2026-05-07 22:27 50.36247 8.55673 35114 ft 457 kts 135°
2026-05-07 22:27 50.31883 8.62905 35093 ft 458 kts 135°
2026-05-07 22:28 50.27536 8.70177 35096 ft 457 kts 135°
2026-05-07 22:28 50.23216 8.77392 35100 ft 457 kts 135°
2026-05-07 22:29 50.18865 8.84639 35099 ft 457 kts 135°
2026-05-07 22:29 50.14518 8.91859 35095 ft 457 kts 135°
2026-05-07 22:30 50.10161 8.99074 35094 ft 457 kts 135°
2026-05-07 22:30 50.05795 9.06283 35087 ft 457 kts 135°
2026-05-07 22:31 50.01444 9.13449 35093 ft 457 kts 135°
2026-05-07 22:31 49.97090 9.20597 35096 ft 457 kts 135°
2026-05-07 22:32 49.92741 9.27719 35091 ft 457 kts 135°
2026-05-07 22:32 49.88366 9.34864 35088 ft 457 kts 136°
2026-05-07 22:33 49.83974 9.42013 35089 ft 457 kts 136°
2026-05-07 22:33 49.80330 9.47931 35072 ft 457 kts 136°
2026-05-07 22:34 49.75940 9.55043 35083 ft 457 kts 136°
2026-05-07 22:34 49.71540 9.62151 35085 ft 457 kts 136°
2026-05-07 22:35 49.67138 9.69241 35088 ft 457 kts 136°
2026-05-07 22:35 49.62744 9.76300 35089 ft 457 kts 136°
2026-05-07 22:36 49.58334 9.83365 35093 ft 457 kts 136°
2026-05-07 22:36 49.53919 9.90417 35085 ft 457 kts 136°
2026-05-07 22:37 49.49506 9.97446 35099 ft 457 kts 136°
2026-05-07 22:37 49.45088 10.04464 35104 ft 457 kts 136°
2026-05-07 22:38 49.40664 10.11473 35098 ft 457 kts 137°
2026-05-07 22:38 49.36238 10.18466 35097 ft 457 kts 137°
2026-05-07 22:39 49.31835 10.25408 35104 ft 457 kts 137°
2026-05-07 22:39 49.27412 10.32361 35082 ft 457 kts 137°
2026-05-07 22:40 49.22803 10.38963 35083 ft 450 kts 152°
2026-05-07 22:40 49.17459 10.43875 35092 ft 448 kts 152°
2026-05-07 22:41 49.12124 10.48777 35131 ft 447 kts 153°
2026-05-07 22:41 49.06782 10.53632 35134 ft 447 kts 153°
2026-05-07 22:42 49.01427 10.58483 35122 ft 447 kts 153°
2026-05-07 22:42 48.96128 10.63272 35130 ft 446 kts 153°
2026-05-07 22:43 48.90777 10.68095 35129 ft 446 kts 153°
2026-05-07 22:43 48.85428 10.72906 35131 ft 447 kts 153°
2026-05-07 22:44 48.80337 10.78227 35097 ft 453 kts 135°
2026-05-07 22:44 48.76099 10.85272 35109 ft 452 kts 136°
2026-05-07 22:45 48.71864 10.92316 35104 ft 452 kts 135°
2026-05-07 22:45 48.67660 10.99341 35104 ft 452 kts 135°
2026-05-07 22:46 48.63435 11.06387 35100 ft 452 kts 135°
2026-05-07 22:46 48.59210 11.13414 35100 ft 451 kts 135°
2026-05-07 22:47 48.54986 11.20421 35102 ft 451 kts 135°
2026-05-07 22:47 48.50760 11.27413 35087 ft 451 kts 135°
2026-05-07 22:48 48.46529 11.34395 35094 ft 450 kts 136°
2026-05-07 22:48 48.42322 11.41319 35098 ft 450 kts 136°
2026-05-07 22:49 48.38095 11.48257 35101 ft 450 kts 136°
2026-05-07 22:49 48.33861 11.55187 35102 ft 452 kts 136°
2026-05-07 22:50 48.29581 11.62178 35099 ft 458 kts 136°
2026-05-07 22:50 48.25099 11.69064 35101 ft 461 kts 142°
2026-05-07 22:51 48.20328 11.75521 35102 ft 468 kts 141°
2026-05-07 22:51 48.15488 11.82174 35100 ft 475 kts 141°
2026-05-07 22:52 48.10602 11.88888 35097 ft 479 kts 141°
2026-05-07 22:52 48.05711 11.95592 35095 ft 479 kts 141°
2026-05-07 22:53 48.00830 12.02262 35075 ft 479 kts 141°
2026-05-07 22:53 47.95893 12.08992 35093 ft 479 kts 141°
2026-05-07 22:54 47.90899 12.15783 35098 ft 479 kts 141°
2026-05-07 22:54 47.81078 12.29085 35100 ft 479 kts 141°
2026-05-07 22:55 47.71290 12.42298 35089 ft 478 kts 142°
2026-05-07 22:55 47.62292 12.54381 35093 ft 479 kts 137°
2026-05-07 22:56 47.57678 12.61555 35087 ft 480 kts 137°
2026-05-07 22:56 47.52576 12.69290 35111 ft 481 kts 138°
2026-05-07 22:57 47.43194 12.83407 35104 ft 483 kts 138°
2026-05-07 22:57 47.33748 12.97522 35098 ft 483 kts 139°
2026-05-07 22:58 47.26855 13.07742 35100 ft 483 kts 139°
2026-05-07 22:58 47.19371 13.18841 35097 ft 484 kts 139°
2026-05-07 22:59 47.12999 13.28242 35084 ft 485 kts 139°
2026-05-07 22:59 47.08247 13.35215 35113 ft 486 kts 139°
2026-05-07 23:00 46.99368 13.48238 35081 ft 486 kts 139°
2026-05-07 23:00 46.89833 13.62143 35075 ft 485 kts 139°
2026-05-07 23:01 46.84002 13.70578 35105 ft 484 kts 140°
2026-05-07 23:01 46.78920 13.77931 35094 ft 483 kts 140°
2026-05-07 23:02 46.73435 13.85848 35055 ft 483 kts 140°
2026-05-07 23:02 46.65326 13.97534 35075 ft 480 kts 141°
2026-05-07 23:03 46.57696 14.08416 35099 ft 481 kts 140°
2026-05-07 23:03 46.48147 14.22020 35072 ft 480 kts 140°
2026-05-07 23:04 46.43049 14.29245 35108 ft 480 kts 141°
2026-05-07 23:04 46.38294 14.35976 35079 ft 479 kts 141°
2026-05-07 23:05 46.33510 14.42725 35067 ft 479 kts 141°
2026-05-07 23:05 46.28756 14.49417 35064 ft 479 kts 141°
2026-05-07 23:06 46.21980 14.58961 35052 ft 479 kts 141°
2026-05-07 23:06 46.12380 14.72361 35074 ft 480 kts 141°
2026-05-07 23:07 46.05579 14.81859 35073 ft 479 kts 141°
2026-05-07 23:07 45.98886 14.91248 35071 ft 479 kts 141°
2026-05-07 23:08 45.89312 15.04648 35075 ft 481 kts 141°
2026-05-07 23:08 45.79740 15.17975 35069 ft 480 kts 142°
2026-05-07 23:09 45.70123 15.31229 35081 ft 480 kts 142°
2026-05-07 23:09 45.60549 15.44457 35077 ft 480 kts 142°
2026-05-07 23:10 45.50979 15.57556 35086 ft 479 kts 142°
2026-05-07 23:10 45.41325 15.70660 35062 ft 481 kts 142°
2026-05-07 23:11 45.31658 15.83800 35084 ft 482 kts 142°
2026-05-07 23:11 45.21956 15.96921 35060 ft 482 kts 143°
2026-05-07 23:12 45.12184 16.09983 35082 ft 483 kts 143°
2026-05-07 23:12 45.02417 16.23038 35082 ft 483 kts 143°
2026-05-07 23:13 44.95520 16.32424 35090 ft 486 kts 141°
2026-05-07 23:13 44.90431 16.39758 35069 ft 486 kts 141°
2026-05-07 23:14 44.80868 16.53408 35078 ft 486 kts 141°
2026-05-07 23:14 44.71439 16.66787 35061 ft 486 kts 142°
2026-05-07 23:15 44.61873 16.80223 35075 ft 487 kts 141°
2026-05-07 23:15 44.56161 16.88282 35087 ft 485 kts 142°
2026-05-07 23:16 44.48573 16.98329 35068 ft 483 kts 143°
2026-05-07 23:16 44.43297 17.05297 35103 ft 483 kts 143°
2026-05-07 23:17 44.37948 17.12342 35106 ft 482 kts 143°
2026-05-07 23:17 44.32848 17.19039 35132 ft 481 kts 143°
2026-05-07 23:18 44.27998 17.25394 35108 ft 481 kts 144°
2026-05-07 23:18 44.21691 17.33637 35137 ft 482 kts 143°
2026-05-07 23:19 44.15092 17.42247 35112 ft 478 kts 143°
2026-05-07 23:19 44.07784 17.51734 35116 ft 479 kts 144°
2026-05-07 23:20 43.99699 17.62162 35081 ft 478 kts 144°
2026-05-07 23:20 43.92810 17.71031 35109 ft 475 kts 144°
2026-05-07 23:21 43.83150 17.83489 35112 ft 476 kts 144°
2026-05-07 23:21 43.76719 17.92136 35085 ft 477 kts 142°
2026-05-07 23:22 43.71973 17.98538 35113 ft 477 kts 142°
2026-05-07 23:22 43.67240 18.04904 35110 ft 476 kts 142°
2026-05-07 23:23 43.58624 18.16570 35120 ft 478 kts 140°
2026-05-07 23:23 43.49328 18.29598 35118 ft 477 kts 140°
2026-05-07 23:24 43.40008 18.42596 35119 ft 475 kts 141°
2026-05-07 23:24 43.30741 18.55432 35128 ft 478 kts 141°
2026-05-07 23:25 43.21315 18.68414 35131 ft 478 kts 140°
2026-05-07 23:25 43.14956 18.77190 35148 ft 477 kts 141°
2026-05-07 23:26 43.10243 18.83646 35125 ft 479 kts 141°
2026-05-07 23:26 43.05530 18.90091 35150 ft 479 kts 141°
2026-05-07 23:27 42.95544 19.03737 35103 ft 478 kts 141°
2026-05-07 23:27 42.90816 19.10121 35143 ft 479 kts 141°
2026-05-07 23:28 42.86079 19.16536 35124 ft 480 kts 141°
2026-05-07 23:28 42.78367 19.26962 35109 ft 481 kts 141°
2026-05-07 23:29 42.73607 19.33359 35199 ft 483 kts 141°
2026-05-07 23:29 42.71212 19.36581 35050 ft 482 kts 141°
2026-05-07 23:29 42.68832 19.39778 35076 ft 480 kts 141°
2026-05-07 23:30 42.62260 19.48622 35093 ft 483 kts 141°
2026-05-07 23:30 42.53333 19.60484 35097 ft 482 kts 143°
2026-05-07 23:31 42.48001 19.66978 35106 ft 482 kts 144°
2026-05-07 23:31 42.42483 19.73772 35126 ft 482 kts 144°
2026-05-07 23:32 42.37524 19.79874 35137 ft 482 kts 144°
2026-05-07 23:32 42.32538 19.85996 35075 ft 483 kts 144°
2026-05-07 23:33 42.27561 19.92094 35095 ft 483 kts 144°
2026-05-07 23:33 42.22015 19.98873 35098 ft 486 kts 145°
2026-05-07 23:34 42.16578 20.05502 35097 ft 489 kts 145°
2026-05-07 23:34 42.09754 20.13803 35074 ft 488 kts 145°
2026-05-07 23:35 42.02806 20.22223 35108 ft 493 kts 145°
2026-05-07 23:35 41.95667 20.30867 35095 ft 494 kts 146°
2026-05-07 23:36 41.88473 20.39519 35102 ft 494 kts 146°
2026-05-07 23:36 41.83355 20.45667 35126 ft 495 kts 146°
2026-05-07 23:37 41.78222 20.51843 35112 ft 499 kts 143°
2026-05-07 23:37 41.75986 20.55469 35079 ft 511 kts 127°
2026-05-07 23:37 41.74105 20.59514 35122 ft 513 kts 128°
2026-05-07 23:38 41.70281 20.67595 35127 ft 514 kts 128°
2026-05-07 23:38 41.66501 20.75677 35108 ft 515 kts 128°
2026-05-07 23:39 41.62309 20.84624 35110 ft 516 kts 128°
2026-05-07 23:39 41.56658 20.96688 35120 ft 516 kts 128°
2026-05-07 23:40 41.50759 21.09173 35136 ft 517 kts 128°
2026-05-07 23:40 41.46547 21.18041 35118 ft 518 kts 128°
2026-05-07 23:41 41.42693 21.26153 35117 ft 519 kts 128°
2026-05-07 23:41 41.37342 21.37415 35121 ft 520 kts 128°
2026-05-07 23:42 41.31769 21.48336 35143 ft 515 kts 133°
2026-05-07 23:42 41.24286 21.61740 35127 ft 516 kts 132°
2026-05-07 23:43 41.15816 21.77078 35135 ft 516 kts 132°
2026-05-07 23:43 41.07802 21.91425 35107 ft 517 kts 135°
2026-05-07 23:44 41.03010 21.98436 35085 ft 515 kts 138°
2026-05-07 23:44 40.98266 22.05509 35169 ft 516 kts 138°
2026-05-07 23:45 40.93012 22.13391 35122 ft 514 kts 138°
2026-05-07 23:45 40.83545 22.27562 35117 ft 516 kts 137°
2026-05-07 23:46 40.74035 22.41740 35110 ft 518 kts 138°
2026-05-07 23:46 40.64456 22.55911 35114 ft 519 kts 138°
2026-05-07 23:47 40.54832 22.70093 35108 ft 520 kts 137°
2026-05-07 23:47 40.45214 22.84188 35099 ft 520 kts 138°
2026-05-07 23:48 40.35586 22.98278 35101 ft 522 kts 137°
2026-05-07 23:48 40.25906 23.12361 35106 ft 521 kts 137°
2026-05-07 23:49 40.16160 23.26440 35089 ft 524 kts 137°
2026-05-07 23:49 40.06354 23.40541 35095 ft 524 kts 137°
2026-05-07 23:50 39.96582 23.54572 35091 ft 524 kts 137°
2026-05-07 23:50 39.86742 23.68635 35090 ft 526 kts 136°
2026-05-07 23:51 39.76902 23.82673 35098 ft 527 kts 137°
2026-05-07 23:51 39.67006 23.96654 35098 ft 527 kts 137°
2026-05-07 23:52 39.57046 24.10639 35089 ft 529 kts 137°
2026-05-07 23:52 39.47069 24.24622 35097 ft 530 kts 137°
2026-05-07 23:53 39.37034 24.38638 35094 ft 530 kts 136°
2026-05-07 23:53 39.27076 24.52473 35089 ft 533 kts 136°
2026-05-07 23:54 39.16974 24.66423 35089 ft 532 kts 137°
2026-05-07 23:54 39.06846 24.80357 35097 ft 532 kts 137°
2026-05-07 23:55 38.96722 24.94266 35088 ft 534 kts 136°
2026-05-07 23:55 38.86545 25.08160 35107 ft 535 kts 137°
2026-05-07 23:56 38.76331 25.21995 35109 ft 535 kts 137°
2026-05-07 23:56 38.66153 25.35767 35107 ft 536 kts 136°
2026-05-07 23:57 38.55833 25.49656 35117 ft 536 kts 136°
2026-05-07 23:57 38.45645 25.63342 35118 ft 537 kts 136°
2026-05-07 23:58 38.36013 25.76217 35117 ft 537 kts 136°
2026-05-07 23:58 38.30854 25.83062 35127 ft 537 kts 136°
2026-05-07 23:59 38.25483 25.89613 35126 ft 531 kts 148°
2026-05-07 23:59 38.19377 25.94808 35131 ft 523 kts 158°
2026-05-08 00:00 38.16044 25.96553 35077 ft 509 kts 175°
2026-05-08 00:00 38.12612 25.97252 35130 ft 498 kts 181°
2026-05-08 00:00 38.09155 25.98009 35113 ft 512 kts 171°
2026-05-08 00:00 38.05774 25.99485 35155 ft 518 kts 167°
2026-05-08 00:01 37.98951 26.02530 35129 ft 518 kts 167°
2026-05-08 00:01 37.92157 26.05607 35130 ft 519 kts 167°
2026-05-08 00:02 37.85418 26.08657 35132 ft 519 kts 167°
2026-05-08 00:02 37.78613 26.11730 35130 ft 519 kts 167°
2026-05-08 00:03 37.71811 26.14797 35132 ft 519 kts 167°
2026-05-08 00:03 37.65000 26.17861 35131 ft 519 kts 167°
2026-05-08 00:04 37.58198 26.20916 35147 ft 519 kts 166°
2026-05-08 00:04 37.51390 26.23968 35148 ft 519 kts 167°
2026-05-08 00:05 37.44587 26.27011 35128 ft 520 kts 167°
2026-05-08 00:05 37.37762 26.30057 35133 ft 521 kts 166°
2026-05-08 00:06 37.30918 26.33107 35132 ft 521 kts 166°
2026-05-08 00:06 37.25231 26.35637 35134 ft 521 kts 166°
2026-05-08 00:07 37.17287 26.39163 35116 ft 521 kts 166°
2026-05-08 00:07 37.10462 26.42186 34534 ft 521 kts 166°
2026-05-08 00:08 37.08145 26.43211 33839 ft 526 kts 166°
2026-05-08 00:08 37.04671 26.44749 32887 ft 531 kts 166°
2026-05-08 00:08 37.01190 26.46287 32369 ft 526 kts 166°
2026-05-08 00:08 36.97841 26.47765 32097 ft 506 kts 166°
2026-05-08 00:09 36.94580 26.49216 31751 ft 491 kts 163°
2026-05-08 00:09 36.91548 26.51157 31163 ft 490 kts 147°
2026-05-08 00:09 36.89006 26.53914 30574 ft 485 kts 130°
2026-05-08 00:09 36.87144 26.57352 30033 ft 472 kts 113°
2026-05-08 00:10 36.85808 26.61034 29551 ft 460 kts 111°
2026-05-08 00:10 36.84520 26.64641 29127 ft 448 kts 111°
2026-05-08 00:10 36.83267 26.68215 28653 ft 453 kts 111°
2026-05-08 00:10 36.82009 26.71841 28170 ft 457 kts 111°
2026-05-08 00:11 36.80755 26.75473 27703 ft 454 kts 111°
2026-05-08 00:11 36.79517 26.79058 27232 ft 449 kts 111°
2026-05-08 00:11 36.78290 26.82611 26771 ft 443 kts 111°
2026-05-08 00:11 36.77079 26.86117 26311 ft 438 kts 111°
2026-05-08 00:12 36.75878 26.89586 25873 ft 432 kts 112°
2026-05-08 00:12 36.74695 26.93001 25437 ft 427 kts 112°
2026-05-08 00:12 36.73524 26.96377 25004 ft 421 kts 113°
2026-05-08 00:12 36.72379 26.99675 24581 ft 416 kts 113°
2026-05-08 00:13 36.71236 27.02961 24173 ft 411 kts 113°
2026-05-08 00:13 36.70106 27.06211 23758 ft 406 kts 114°
2026-05-08 00:13 36.68996 27.09399 23290 ft 401 kts 114°
2026-05-08 00:13 36.67888 27.12575 22868 ft 398 kts 114°
2026-05-08 00:14 36.66789 27.15726 22476 ft 395 kts 114°
2026-05-08 00:14 36.65696 27.18854 22076 ft 393 kts 114°
2026-05-08 00:14 36.64608 27.21964 21680 ft 392 kts 114°
2026-05-08 00:14 36.63521 27.25068 21290 ft 389 kts 113°
2026-05-08 00:15 36.62446 27.28135 20904 ft 386 kts 113°
2026-05-08 00:15 36.61374 27.31190 20515 ft 383 kts 113°
2026-05-08 00:15 36.60313 27.34211 20143 ft 380 kts 113°
2026-05-08 00:15 36.59262 27.37200 19764 ft 377 kts 113°
2026-05-08 00:16 36.58215 27.40176 19393 ft 374 kts 113°
2026-05-08 00:16 36.57174 27.43131 19018 ft 371 kts 113°
2026-05-08 00:16 36.56142 27.46059 18656 ft 368 kts 113°
2026-05-08 00:16 36.55129 27.48928 18266 ft 365 kts 113°
2026-05-08 00:17 36.54112 27.51805 17861 ft 362 kts 113°
2026-05-08 00:17 36.53090 27.54696 17480 ft 360 kts 113°
2026-05-08 00:17 36.52098 27.57500 17118 ft 358 kts 113°
2026-05-08 00:17 36.51082 27.60365 16737 ft 356 kts 113°
2026-05-08 00:18 36.50668 27.61534 16595 ft 355 kts 113°
2026-05-08 00:18 36.49661 27.64374 16224 ft 353 kts 113°
2026-05-08 00:18 36.48677 27.67148 15872 ft 351 kts 113°
2026-05-08 00:18 36.47694 27.69916 15514 ft 349 kts 113°
2026-05-08 00:19 36.46831 27.72365 15144 ft 347 kts 110°
2026-05-08 00:19 36.46249 27.75280 14687 ft 339 kts 96°
2026-05-08 00:19 36.46009 27.77178 14471 ft 332 kts 97°
2026-05-08 00:19 36.45657 27.79817 14145 ft 324 kts 97°
2026-05-08 00:20 36.45416 27.81614 13928 ft 321 kts 97°
2026-05-08 00:20 36.45045 27.84385 13560 ft 329 kts 97°
2026-05-08 00:20 36.44665 27.87206 13204 ft 333 kts 97°
2026-05-08 00:20 36.44279 27.90045 12851 ft 333 kts 99°
2026-05-08 00:21 36.43475 27.92721 12456 ft 332 kts 122°
2026-05-08 00:21 36.42111 27.95007 12131 ft 331 kts 127°
2026-05-08 00:21 36.40724 27.97289 11815 ft 330 kts 127°
2026-05-08 00:21 36.39334 27.99556 11473 ft 329 kts 127°
2026-05-08 00:22 36.37947 28.01808 11134 ft 327 kts 127°
2026-05-08 00:22 36.36569 28.04037 10791 ft 325 kts 127°
2026-05-08 00:22 36.35193 28.06259 10467 ft 323 kts 127°
2026-05-08 00:22 36.33869 28.08433 10307 ft 308 kts 124°
2026-05-08 00:23 36.32657 28.10536 10133 ft 293 kts 124°
2026-05-08 00:23 36.31503 28.12532 9956 ft 279 kts 124°
2026-05-08 00:23 36.30380 28.14470 9675 ft 285 kts 124°
2026-05-08 00:23 36.29250 28.16414 9350 ft 290 kts 124°
2026-05-08 00:24 36.28066 28.18451 9022 ft 292 kts 125°
2026-05-08 00:24 36.26885 28.20480 8714 ft 291 kts 125°
2026-05-08 00:24 36.25701 28.22514 8404 ft 290 kts 125°
2026-05-08 00:24 36.25297 28.23208 8303 ft 289 kts 125°
2026-05-08 00:25 36.24126 28.25222 7996 ft 287 kts 123°
2026-05-08 00:25 36.23309 28.27457 7644 ft 284 kts 99°
2026-05-08 00:25 36.23358 28.29864 7331 ft 279 kts 73°
2026-05-08 00:25 36.24221 28.31975 7057 ft 273 kts 48°
2026-05-08 00:26 36.25635 28.33418 6787 ft 268 kts 26°
2026-05-08 00:26 36.27379 28.34181 6504 ft 265 kts 15°
2026-05-08 00:26 36.29153 28.34793 6189 ft 264 kts 15°
2026-05-08 00:26 36.30908 28.35364 5858 ft 264 kts 14°
2026-05-08 00:27 36.32690 28.35922 5550 ft 263 kts 14°
2026-05-08 00:27 36.34462 28.36465 5260 ft 261 kts 13°
2026-05-08 00:27 36.36225 28.36998 4989 ft 259 kts 13°
2026-05-08 00:27 36.37970 28.37520 4708 ft 257 kts 13°
2026-05-08 00:28 36.38877 28.37790 4560 ft 256 kts 13°
2026-05-08 00:28 36.40576 28.38295 4387 ft 244 kts 13°
2026-05-08 00:28 36.42182 28.38737 4251 ft 228 kts
2026-05-08 00:29 36.43712 28.38798 4102 ft 213 kts 352°
2026-05-08 00:29 36.45100 28.38276 3963 ft 211 kts 332°
2026-05-08 00:29 36.46291 28.37159 3903 ft 218 kts 313°
2026-05-08 00:29 36.47133 28.35573 3822 ft 224 kts 293°
2026-05-08 00:30 36.47413 28.33698 3684 ft 225 kts 271°
2026-05-08 00:30 36.47247 28.31752 3476 ft 228 kts 258°
2026-05-08 00:30 36.46774 28.29874 3230 ft 228 kts 251°
2026-05-08 00:30 36.46223 28.28062 2941 ft 220 kts 251°
2026-05-08 00:31 36.45708 28.26325 2670 ft 207 kts 252°
2026-05-08 00:31 36.45384 28.25217 2477 ft 196 kts 252°
2026-05-08 00:31 36.44981 28.23837 2279 ft 173 kts 252°
2026-05-08 00:31 36.44592 28.22505 2048 ft 155 kts 253°
2026-05-08 00:32 36.44229 28.21259 1835 ft 153 kts 252°
2026-05-08 00:32 36.43864 28.20008 1642 ft 154 kts 252°
2026-05-08 00:32 36.43501 28.18765 1409 ft 153 kts 252°
2026-05-08 00:32 36.43145 28.17543 1228 ft 152 kts 252°
2026-05-08 00:33 36.42784 28.16314 993 ft 151 kts 251°
2026-05-08 00:33 36.42428 28.15085 805 ft 151 kts 251°
2026-05-08 00:33 36.42068 28.13866 616 ft 150 kts 250°
2026-05-08 00:33 36.41705 28.12642 440 ft 151 kts 250°
2026-05-08 00:34 36.41342 28.11417 241 ft 152 kts 250°
2026-05-08 00:34 36.40990 28.10182 56 ft 152 kts 250°
2026-05-08 00:34 36.40718 28.09259 33 ft 128 kts 249°
2026-05-08 00:34 36.40497 28.08506 27 ft 62 kts 249°
2026-05-08 00:35 36.40386 28.08120 27 ft 23 kts 250°
2026-05-08 00:35 36.40328 28.08006 29 ft 11 kts 223°
2026-05-08 00:35 36.40294 28.07972 29 ft 3 kts 218°
2026-05-08 00:35 36.40266 28.07945 28 ft 7 kts 218°
2026-05-08 00:36 36.40221 28.07898 27 ft 10 kts 220°
2026-05-08 00:36 36.40160 28.07860 27 ft 10 kts 158°
2026-05-08 00:36 36.40152 28.07935 28 ft 10 kts 71°
2026-05-08 00:36 36.40176 28.08017 29 ft 10 kts 69°
2026-05-08 00:37 36.40200 28.08099 32 ft 10 kts 70°
2026-05-08 00:37 36.40224 28.08181 32 ft 11 kts 70°
2026-05-08 00:37 36.40253 28.08277 31 ft 13 kts 70°
2026-05-08 00:38 36.40331 28.08542 29 ft 18 kts 70°
2026-05-08 00:38 36.40375 28.08695 31 ft 18 kts 70°
2026-05-08 00:38 36.40401 28.08834 31 ft 12 kts 91°
2026-05-08 00:38 36.40396 28.08934 32 ft 12 kts 92°
2026-05-08 00:39 36.40409 28.09033 32 ft 12 kts 70°
2026-05-08 00:39 36.40426 28.09101 32 ft 0 kts 103°
2026-05-08 00:39 36.40425 28.09103 32 ft 0 kts 117°
2026-05-08 00:39 36.40421 28.09109 32 ft 2 kts 129°
2026-05-08 00:40 36.40405 28.09122 32 ft 4 kts 150°
2026-05-08 00:40 36.40396 28.09128 32 ft 1 kts 156°
2026-05-08 00:40 36.40386 28.09133 32 ft 2 kts 158°
2026-05-08 00:40 36.40377 28.09137 32 ft 1 kts 159°
2026-05-08 00:41 36.40376 28.09138 32 ft 0 kts 159°